STARLINK-30479, 57898

Orbit data source: Space-Track

STARLINK-30479, 57898 is a payload satellite owned by SpaceX/Seattle (US) in LEO that was launched on Wed, 20 Sep 2023 UTC via an FALCON 9 launch vehicle from the Air Force Eastern Test Range (AFETR). Payload-class satellites include a variety of spacecraft equipped with specific instruments for various scientific and technological missions. These include communications satellites like Starlink; space stations such as the ISS; scientific satellites like the Hubble; Earth observation satellites from companies like Planet Labs, Umbra, and HawkEye 360; GPS; miniature CubeSats for education and research; and military/defense satellites.

Loading next visibility...
Identifier
57898, 2023-146H
Orbit
LEO
Country
Flag of USUS
Related business
Manufacturer
SpaceX/Seattle
Mission
Operational Commercial Communications
Bus & Motor
STARLINK V2M, Unknown motor
Mass
730 kg wet, ~700 kg dry
Launch date (UTC)
2023-09-20 (3 years ago)
Launch vehicle
FALCON 9
Launch site
Air Force Eastern Test Range (AFETR)
Object type
Payload
Rocket body
Debris
Shape & HBR
Box + 2 Pan, 17.7 m
Radar Cross Section
33.884 m², Large (>1 m²)

Expand to show TLE details & history
Last TLE update: 2 days ago

TLE from 2 days ago
0 STARLINK-30479
1 57898U 23146H   26171.13737596 -.00002860  00000-0 -94452-4 0  9997
2 57898  43.0029  95.6880 0002582 256.5094 103.5470 15.27572206152725
Epoch: 2026-06-20T03:17Z
TLE epoch observation values (Epoch: 2026-06-20T03:17:49.282Z)
Latitude
-0.00004°
Longitude
137.8763°
Altitude
483.264 km
Speed
7.625 km/s
True Right ascension
06h 22m 45s
True Declination
0° 00' 00"
Sunlit
Object was in daylight at epoch
Visualization orbit readout
Latitude
Unknown
Longitude
Unknown
Altitude
Unknown
Speed
Unknown
Apparent Right ascension
Unknown
Apparent Declination
Unknown
Sunlit
N/A
Visualization observer readout
Local Sidereal Time
23:21:05
Azimuth
Unknown
Elevation
Unknown
Doppler factor
Unknown
Orbital elements
Apogee altitude
486.789 km
Perigee altitude
483.245 km
Semi-major axis
6,863.154 km
Eccentricity
0.00026
Inclination
43.0029°
RAAN
95.688°
Arg. of periapsis
256.5094°
True anomaly
103.57576°
Mean anomaly
103.547°
Eccentric anomaly
103.56138°
Mean motion
3.81731 °/min
Orbital period
94.31 mins
BSTAR
-0.000094452
Loading maneuver chart data...
Computing Atmospheric mass density...
Loading historical data...
Loading historical data...
Loading historical data...
Loading historical data...
Loading historical data...
Loading historical data...
Loading historical data...

Documentation

Showing up to 5 results
|